Location: Krakow
(50.0830°N, 19.9170°E)
Time: 06:41:59
(UTC+02:00)

A-11 Canister half - Pass Details

Date: 20 March 2026
Orbit: 1523 x 1684 km, 47.3° (Epoch: 18 April)

Event Time Altitude Azimuth Distance (km) Brightness Sun altitude
Rises 07:11:42 0° 211° (SSW) 4,910 11.5 13.2°
Reaches altitude 10° 07:15:11 10° 203° (SSW) 3,910 11.1 13.7°
Maximum altitude 07:24:00 37° 141° (SE) 2,351 11.0 15.0°
Drops below altitude 10° 07:32:35 10° 79° (E) 3,817 12.3 16.3°
Sets 07:35:55 0° 72° (ENE) 4,781 12.4 16.8°
